User: anonymous   Login
Location: Unspecified
(0.0000°N, 0.0000°E)
Time: 00:08:39
(UTC+00:00)
Language:

TDF 2 - Orbit

View from above orbital plane
View from above orbital plane
View from above satellite
View from above satellite

Ground track
Ground track

The orbit data is extracted from the following two-line orbital elements,

1 20705U 90063A   18112.64435730 -.00000176  00000-0  00000+0 0  9991
2 20705  14.5362  22.5449 0045898 257.0616 281.5723  0.98611194103892
Epoch (UTC): 22 April 2018 15:27:52
Eccentricity: 0.0045898
inclination: 14.5362°
perigee height: 36062 km
apogee height: 36454 km
right ascension of ascending node: 22.5449°
argument of perigee: 257.0616°
revolutions per day: 0.98611194
mean anomaly at epoch: 281.5723°
orbit number at epoch: 10389

The dashed part of the orbit path shows where the satellite is in the earth's shadow,  

DLR